TimePDT,TemperatureF,Dew PointF,Humidity,Sea Level PressureIn,VisibilityMPH,Wind Direction,Wind SpeedMPH,Gust SpeedMPH,PrecipitationIn,Events,Conditions,WindDirDegrees,DateUTC
12:53 AM,60.1,55.0,83,30.09,10.0,Calm,Calm,-,N/A,,Overcast,0,2013-08-18 07:53:00
1:12 AM,60.1,55.0,83,30.09,10.0,West,3.5,-,N/A,,Overcast,280,2013-08-18 08:12:00
1:53 AM,59.0,55.0,87,30.08,10.0,WNW,4.6,-,N/A,,Overcast,300,2013-08-18 08:53:00
2:21 AM,59.0,55.0,87,30.08,10.0,Calm,Calm,-,N/A,,Overcast,0,2013-08-18 09:21:00
2:36 AM,59.0,55.0,87,30.08,10.0,Calm,Calm,-,N/A,,Overcast,0,2013-08-18 09:36:00
2:53 AM,59.0,55.0,87,30.09,10.0,West,5.8,-,N/A,,Overcast,260,2013-08-18 09:53:00
3:21 AM,59.0,55.0,87,30.08,10.0,Calm,Calm,-,N/A,,Overcast,0,2013-08-18 10:21:00
3:53 AM,59.0,55.0,87,30.09,10.0,Calm,Calm,-,N/A,,Overcast,0,2013-08-18 10:53:00
4:53 AM,59.0,55.0,87,30.09,10.0,Calm,Calm,-,N/A,,Overcast,0,2013-08-18 11:53:00
5:53 AM,57.0,54.0,89,30.09,10.0,Calm,Calm,-,N/A,,Overcast,0,2013-08-18 12:53:00
6:27 AM,57.0,55.0,93,30.09,10.0,WSW,4.6,-,N/A,,Overcast,240,2013-08-18 13:27:00
6:53 AM,59.0,55.0,87,30.10,10.0,SW,3.5,-,N/A,,Overcast,230,2013-08-18 13:53:00
7:53 AM,61.0,55.0,81,30.10,10.0,WSW,4.6,-,N/A,,Overcast,240,2013-08-18 14:53:00
8:53 AM,64.9,55.0,70,30.10,10.0,Calm,Calm,-,N/A,,Partly Cloudy,0,2013-08-18 15:53:00
9:53 AM,64.0,55.0,73,30.11,10.0,Variable,4.6,-,N/A,,Clear,0,2013-08-18 16:53:00
10:53 AM,66.0,55.0,68,30.12,10.0,Variable,5.8,-,N/A,,Partly Cloudy,0,2013-08-18 17:53:00
11:53 AM,64.0,55.9,75,30.13,10.0,NNW,10.4,-,N/A,,Mostly Cloudy,330,2013-08-18 18:53:00
12:53 PM,68.0,55.9,65,30.13,10.0,NW,9.2,16.1,N/A,,Overcast,310,2013-08-18 19:53:00
1:03 PM,66.9,55.9,68,30.13,10.0,NW,8.1,-,N/A,,Overcast,310,2013-08-18 20:03:00
1:53 PM,63.0,57.0,81,30.14,10.0,Variable,4.6,-,N/A,,Overcast,0,2013-08-18 20:53:00
2:53 PM,62.1,55.9,80,30.15,10.0,WNW,8.1,-,N/A,,Overcast,300,2013-08-18 21:53:00
3:53 PM,64.9,55.0,70,30.14,10.0,NW,8.1,-,N/A,,Overcast,310,2013-08-18 22:53:00
4:53 PM,66.9,52.0,59,30.13,10.0,WNW,12.7,-,N/A,,Overcast,300,2013-08-18 23:53:00
5:53 PM,66.0,53.1,63,30.12,10.0,West,11.5,-,N/A,,Overcast,280,2013-08-19 00:53:00
6:53 PM,64.9,52.0,63,30.11,10.0,West,12.7,-,N/A,,Overcast,280,2013-08-19 01:53:00
7:53 PM,64.0,51.1,63,30.11,10.0,West,11.5,-,N/A,,Overcast,280,2013-08-19 02:53:00
8:53 PM,61.0,52.0,72,30.11,10.0,West,6.9,-,N/A,,Overcast,280,2013-08-19 03:53:00
9:53 PM,60.1,54.0,80,30.11,10.0,West,6.9,-,N/A,,Mostly Cloudy,260,2013-08-19 04:53:00
10:53 PM,60.1,54.0,80,30.11,10.0,West,8.1,-,N/A,,Overcast,280,2013-08-19 05:53:00
11:53 PM,57.9,54.0,87,30.09,10.0,West,3.5,-,N/A,,Partly Cloudy,260,2013-08-19 06:53:00